{"data":{"norad_id":66956,"epoch":"2026-09-20T21:56:33.786816Z","epoch_age_seconds":76261,"freshness":"FRESH","line1":"1 66956U 25287D   26263.91427994 -.00000057  00000+0 -16644-3 0  9997","line2":"2 66956  86.4906 250.0307 0002995 101.4966 258.6505 13.24406151 38016","mean_motion":13.24406151,"eccentricity":0.0002995,"inclination_deg":86.4906,"raan_deg":250.0307,"arg_perigee_deg":101.4966,"mean_anomaly_deg":258.6505,"bstar":-0.00016644,"rev_number":3801,"period_min":108.72797584885,"perigee_km":1165.6767567941,"apogee_km":1170.1968550039,"semimajor_km":7546.073805899,"source":"CELESTRAK","updated_at":"2026-09-21T09:00:16.321225Z"}}